[[{"header":{"parameterUnit":"m.s-1","parameterCategory":1,"la1":30.2991,"la2":30.254,"lo1":-89.0895,"lo2":-89.0444,"dy":0.0017,"dx":0.0017,"nx":28,"ny":28,"refTime":"2025-07-20T03:00:00:Z","depth":0,"parameterNumber":2,"parameterNumberName":"U-component_of_WINDS"},"data":[0,0,0,0,0,0,0,0,0,0,0,0,0,0,0,0,0,0,0,0,0,0,0,0,0,0,0,0,0,0,0,0,0,0,0,0,0,0,0,0,0,0,0,0,0,0,0,0,0,0,0,0,0,0,0,0,0,0,3.4548,3.4549,0,3.4629,3.463,3.4631,3.4573,3.4571,3.4568,3.4566,3.4652,3.4656,3.4661,0,0,0,0,0,0,0,0,0,0,0,0,0,3.4342,3.4347,3.4548,3.4549,3.455,3.4629,3.463,3.4631,3.4574,3.4571,3.4567,3.4564,3.465,3.4656,3.4661,0,0,0,0,0,0,0,0,0,0,0,0,0,3.4429,3.4348,3.4547,3.453,3.453,3.4629,3.463,3.4631,3.4574,3.457,3.4567,3.4563,3.4648,3.4655,3.4662,3.4783,0,0,3.4684,3.4687,0,0,0,0,0,0,0,0,3.4424,3.4436,3.4532,3.4532,3.4531,3.4587,3.4589,3.4682,3.4575,3.4558,3.4566,3.4561,3.4634,3.4642,3.4665,3.4787,3.4791,3.4684,3.4689,3.4692,3.4694,0,0,0,0,0,0,0,3.4418,3.4432,3.458,3.4533,3.4533,3.4519,3.4527,3.4607,3.4616,3.4559,3.4555,3.4565,3.4633,3.4659,3.4667,3.4792,3.4684,3.469,3.4695,3.4697,3.5013,3.5017,0,0,0,0,0,0,3.4413,3.4428,3.4577,3.4582,3.4467,3.4526,3.4535,3.4573,3.4615,3.4618,3.4568,3.4562,3.4649,3.4659,3.467,3.4811,3.4692,3.4698,3.4702,3.5009,3.5014,3.5019,0,0,0,0,0,0,3.4409,3.4427,3.4574,3.4504,3.4522,3.4533,3.4577,3.4577,3.4603,3.4622,3.4624,3.4593,3.4646,3.466,3.4754,3.4814,3.4701,3.4708,3.5004,3.5011,3.5016,3.5098,0,0,0,0,0,0,3.4403,3.4426,3.4472,3.4505,3.4526,3.4658,3.4581,3.4581,3.4615,3.4607,3.4646,3.4649,3.4644,3.4744,3.4761,3.4821,3.4713,3.4999,3.5007,3.5014,3.509,3.5106,3.512,0,0,0,0,0,3.4396,3.4493,3.4475,3.4493,3.4584,3.4661,3.4673,3.4664,3.462,3.4666,3.4678,3.4648,3.4805,3.4754,3.4773,3.4836,3.4995,3.5005,3.5014,3.5083,3.5103,3.512,0,0,0,0,0,0,3.4469,3.4498,3.4478,3.4588,3.4622,3.4651,3.471,3.4686,3.4734,3.4726,3.4714,3.4723,3.4821,3.4838,3.4782,3.4954,3.4893,3.4906,3.4939,3.4958,3.4973,3.4966,3.4719,0,0,0,0,0,3.4498,3.4558,3.458,3.4675,3.4693,3.4698,3.4732,3.4722,3.4757,3.4772,3.4791,3.4827,3.4884,3.4922,3.4976,3.5092,3.5098,3.5144,3.5159,3.5172,3.5183,3.5243,3.5263,3.5049,3.5049,3.5049,0,0,3.4558,3.4581,3.462,3.469,3.4716,3.4777,3.4711,3.4781,3.4826,3.4783,3.4872,3.4887,3.4927,3.5031,3.5079,3.5049,3.5244,3.5184,3.5193,3.5198,3.5255,3.5275,3.5293,3.5056,3.5055,3.5054,0,0,3.4699,3.4723,3.4804,3.483,3.4868,3.487,3.489,3.4922,3.4929,3.5018,3.4986,3.504,3.514,3.5168,3.5195,3.5343,3.5316,3.5361,3.544,3.5498,3.5515,3.553,3.558,3.5599,3.5373,3.5373,3.5373,0,3.4769,3.4861,3.4849,3.4919,3.495,3.4912,3.4992,3.5019,3.5073,3.5095,3.5061,3.5182,3.5206,3.5315,3.5351,3.5375,3.5396,3.5357,3.5513,3.5528,3.5542,3.559,3.5609,3.5378,3.5378,3.5377,3.5377,0,3.4944,3.5008,3.5069,3.512,3.5158,3.5234,3.5232,3.5272,3.5258,3.5263,3.5353,3.538,3.5437,3.5462,3.5451,3.557,3.5549,3.5515,3.5453,3.5567,3.5612,3.5631,3.5386,3.5384,3.5382,3.5381,0,0,3.5136,3.5176,3.5198,3.522,3.5258,3.5307,3.538,3.5434,3.5467,3.5506,3.5565,3.5648,3.5615,3.5646,3.5637,3.5688,3.58,3.5646,3.5647,3.5673,3.593,3.5955,3.5977,3.5783,3.5786,3.5789,3.5926,0,3.5277,3.5403,3.5392,3.5511,3.5568,3.5531,3.5594,3.5624,3.5631,3.568,3.5688,3.5746,3.5699,3.5717,3.5766,3.5776,3.5852,3.5767,3.5837,3.584,3.5828,3.6001,3.6028,3.6157,3.5944,3.5947,3.5949,0,3.5459,3.5501,3.5625,3.5651,3.5675,3.5732,3.5779,3.5827,3.5859,3.586,3.5893,3.5874,3.5947,3.5883,3.5982,3.5924,3.5952,3.5962,3.5966,3.5972,3.5901,3.601,3.6198,3.6216,3.5977,3.5975,3.5973,0,3.5583,3.5671,3.5756,3.5775,3.5809,3.5849,3.5865,3.5893,3.5925,3.5966,3.5986,3.6037,3.6064,3.6102,3.6097,3.6052,3.6196,3.6133,3.6198,3.6199,3.623,3.6228,3.6424,3.6251,3.6251,3.625,3.625,0,3.5742,3.5819,3.5811,3.5863,3.5948,3.5934,3.6018,3.6029,3.6054,3.6107,3.6079,3.6129,3.6119,3.6169,3.6166,3.6246,3.626,3.6262,3.626,3.6264,3.6263,3.6281,3.6272,3.6255,3.6254,3.6253,3.6252,0,3.5895,3.5893,3.5982,3.6005,3.6013,3.6074,3.6093,3.6142,3.6145,3.6212,3.6227,3.6232,3.6289,3.6287,3.6353,3.6351,3.6449,3.6438,3.6438,3.6435,3.6499,3.6493,3.6713,3.674,3.6551,3.6552,3.6554,0,3.5995,3.6053,3.6081,3.6114,3.6131,3.6185,3.6216,3.6205,3.6239,3.6278,3.6322,3.6375,3.6418,3.6511,3.6521,3.657,3.6558,3.6632,3.6566,3.6567,3.6557,3.6553,3.6558,3.6645,3.6647,3.6649,3.665,0,3.6174,3.6169,3.6215,3.6261,3.6298,3.6334,3.6367,3.6395,3.6387,3.6426,3.6483,3.6516,3.6581,3.6634,3.6681,3.6697,3.6672,3.6671,3.6688,3.6692,3.6689,3.669,3.6472,3.6666,3.6664,3.6663,3.6662,3.6662,3.6302,3.6351,3.6377,3.6428,3.6451,3.6481,3.6527,3.6534,3.6581,3.6632,3.6622,3.6686,3.6714,3.6773,3.6793,3.6842,3.6816,3.6842,3.6848,3.6855,3.6861,3.6682,3.6851,3.6851,3.685,3.685,3.685,0,3.6477,3.6491,3.6539,3.6584,3.6624,3.6595,3.6629,3.6664,3.672,3.6747,3.6789,3.6853,3.6904,3.6916,3.6965,3.7001,3.6991,3.7015,3.7011,3.7015,3.6882,3.6861,3.7022,3.7022,3.7022,3.7022,3.7022,3.7022,3.6573,3.6652,3.665,3.6739,3.6753,3.6814,3.6835,3.6862,3.6883,3.6956,3.6997,3.7004,3.7025,3.7075,3.7119,3.7122,3.714,3.7168,3.7166,3.7042,3.7025,3.7008,3.6988,3.7173,3.7173,3.7294,3.7295,3.7296]},{"header":{"parameterUnit":"m.s-1","parameterCategory":1,"la1":30.2991,"la2":30.254,"lo1":-89.0895,"lo2":-89.0444,"dy":0.0017,"dx":0.0017,"nx":28,"ny":28,"refTime":"2025-07-20T03:00:00:Z","depth":0,"parameterNumber":3,"parameterNumberName":"V-component_of_WINDS"},"data":[0,0,0,0,0,0,0,0,0,0,0,0,0,0,0,0,0,0,0,0,0,0,0,0,0,0,0,0,0,0,0,0,0,0,0,0,0,0,0,0,0,0,0,0,0,0,0,0,0,0,0,0,0,0,0,0,0,0,4.8564,4.8566,0,4.8723,4.8725,4.8727,4.8714,4.8711,4.8709,4.8707,4.8862,4.8868,4.8875,0,0,0,0,0,0,0,0,0,0,0,0,0,4.8241,4.8247,4.8564,4.8566,4.8568,4.8723,4.8725,4.8727,4.8714,4.8711,4.8708,4.8706,4.886,4.8868,4.8875,0,0,0,0,0,0,0,0,0,0,0,0,0,4.8389,4.8249,4.8563,4.858,4.8583,4.8722,4.8725,4.8728,4.8715,4.8711,4.8707,4.8704,4.8858,4.8867,4.8876,4.9007,0,0,4.8905,4.891,0,0,0,0,0,0,0,0,4.8381,4.8401,4.8576,4.8579,4.8583,4.8695,4.8668,4.8821,4.8716,4.8665,4.8707,4.8702,4.8809,4.8822,4.886,4.9014,4.9021,4.8906,4.8912,4.8916,4.8919,0,0,0,0,0,0,0,4.837,4.8394,4.8626,4.8578,4.8583,4.8577,4.8594,4.8697,4.8755,4.8669,4.8668,4.8688,4.881,4.8851,4.8863,4.9023,4.8906,4.8915,4.892,4.8924,4.9291,4.9295,0,0,0,0,0,0,4.8357,4.8385,4.8621,4.8631,4.8471,4.8586,4.8605,4.8662,4.8754,4.8764,4.869,4.8686,4.8836,4.8852,4.8869,4.9027,4.8916,4.8925,4.8931,4.9287,4.9292,4.9296,0,0,0,0,0,0,4.835,4.8379,4.8615,4.8508,4.8538,4.8595,4.866,4.8667,4.8708,4.877,4.8779,4.8722,4.8834,4.8855,4.8973,4.9032,4.8929,4.8938,4.9282,4.9288,4.9294,4.9345,0,0,0,0,0,0,4.8341,4.8376,4.8428,4.851,4.8544,4.8719,4.8664,4.8673,4.8725,4.8722,4.8802,4.8812,4.8833,4.8959,4.8982,4.9043,4.8946,4.9277,4.9285,4.9292,4.9338,4.9352,4.9363,0,0,0,0,0,4.833,4.8434,4.8431,4.8459,4.861,4.8722,4.8742,4.8766,4.873,4.8782,4.8821,4.8809,4.9022,4.8971,4.8997,4.9062,4.9273,4.9283,4.9292,4.9332,4.9349,4.9363,0,0,0,0,0,0,4.8356,4.8445,4.8442,4.8577,4.8643,4.872,4.8786,4.8783,4.8858,4.8851,4.8875,4.8894,4.9012,4.9049,4.899,4.9193,4.9143,4.9157,4.9164,4.9181,4.9193,4.9182,4.8953,0,0,0,0,0,4.8378,4.8464,4.8536,4.8648,4.8681,4.8728,4.8778,4.8791,4.8859,4.8885,4.8934,4.8998,4.9079,4.9132,4.921,4.9343,4.936,4.9401,4.9413,4.9424,4.9436,4.9508,4.9526,4.9326,4.9326,4.9326,0,0,4.8423,4.8482,4.8535,4.8655,4.8707,4.8793,4.8751,4.8844,4.8908,4.8899,4.9013,4.9051,4.9124,4.925,4.9307,4.9284,4.9495,4.9435,4.9443,4.945,4.9519,4.9538,4.9555,4.9332,4.9331,4.933,0,0,4.8549,4.8604,4.8703,4.8756,4.8837,4.8867,4.8891,4.8969,4.8995,4.9111,4.9106,4.918,4.932,4.9372,4.9417,4.9563,4.9554,4.9588,4.9654,4.9724,4.9739,4.9754,4.9805,4.9823,4.96,4.96,4.96,0,4.8594,4.8726,4.8753,4.8848,4.89,4.8898,4.8997,4.9047,4.9148,4.9183,4.9156,4.9331,4.938,4.9518,4.9554,4.959,4.9616,4.9578,4.9736,4.975,4.9763,4.9812,4.9832,4.9603,4.9603,4.9602,4.9602,0,4.8777,4.8869,4.8939,4.9039,4.9099,4.9195,4.9234,4.9291,4.9299,4.9331,4.9448,4.9508,4.9598,4.9631,4.9639,4.977,4.9753,4.973,4.968,4.9786,4.9832,4.9851,4.9608,4.9607,4.9606,4.9605,0,0,4.8924,4.9039,4.9064,4.9109,4.9198,4.9268,4.9363,4.9453,4.9501,4.957,4.965,4.9768,4.9748,4.9799,4.9813,4.9874,4.9985,4.9844,4.9846,4.9868,5.0131,5.0147,5.0169,4.998,4.9983,4.9986,5.0125,0,4.9058,4.923,4.9257,4.9406,4.949,4.949,4.9573,4.9635,4.9668,4.9742,4.9777,4.986,4.9828,4.9859,4.992,4.9959,5.0038,4.9949,5.0051,5.0055,5.0033,5.0193,5.021,5.0338,5.0143,5.0146,5.0149,0,4.9238,4.9315,4.9474,4.9552,4.9588,4.9662,4.9747,4.9818,4.9888,4.9907,4.9965,4.9971,5.0067,5.0014,5.0145,5.0084,5.0128,5.0153,5.0158,5.0168,5.0107,5.0206,5.0379,5.0398,5.0178,5.0175,5.0173,0,4.9328,4.9471,4.9585,4.9623,4.9717,4.9769,4.981,4.9876,4.9929,5.0002,5.0036,5.0118,5.0163,5.0226,5.0253,5.0212,5.0383,5.0332,5.04,5.0399,5.0435,5.0432,5.0617,5.0464,5.0464,5.0464,5.0463,0,4.9475,4.9572,4.9626,4.9696,4.9804,4.9833,4.9938,4.9977,5.0036,5.0112,5.0115,5.0186,5.0218,5.0292,5.0314,5.0419,5.0439,5.0456,5.0461,5.0456,5.0453,5.0484,5.0475,5.0469,5.0468,5.0467,5.0466,0,4.9593,4.9634,4.9757,4.9836,4.9858,4.9934,5.0001,5.0067,5.01,5.0195,5.0219,5.0269,5.0357,5.0391,5.0498,5.0512,5.0634,5.0631,5.0611,5.0612,5.0678,5.0671,5.0887,5.0917,5.0746,5.0747,5.0749,0,4.9684,4.9759,4.9846,4.9899,4.9942,5.0026,5.008,5.0111,5.0166,5.0252,5.0307,5.0396,5.0468,5.0608,5.0653,5.0734,5.0733,5.0803,5.0745,5.0737,5.0733,5.0728,5.0735,5.0813,5.0815,5.0817,5.0818,0,4.984,4.9857,4.9936,5.0023,5.0089,5.0158,5.0225,5.0266,5.0307,5.0369,5.0461,5.0517,5.0627,5.0714,5.0798,5.0837,5.0834,5.0836,5.0856,5.0851,5.0836,5.0844,5.0639,5.0831,5.0829,5.0828,5.0828,5.0827,4.9947,5.0013,5.0086,5.0174,5.0228,5.0291,5.0357,5.0399,5.0477,5.0571,5.0583,5.0681,5.0748,5.086,5.0903,5.0978,5.0959,5.0988,5.0995,5.1002,5.1006,5.0825,5.0994,5.0993,5.0993,5.0993,5.0992,0,5.0102,5.0149,5.023,5.0325,5.0394,5.0388,5.0462,5.052,5.0606,5.067,5.0742,5.0847,5.0931,5.0983,5.1067,5.1117,5.1118,5.1138,5.1134,5.1143,5.1019,5.0993,5.1136,5.1136,5.1136,5.1136,5.1136,5.1136,5.0191,5.0303,5.0329,5.0467,5.0512,5.061,5.0653,5.071,5.0761,5.0879,5.095,5.0984,5.1043,5.1132,5.1208,5.1221,5.1251,5.1273,5.1284,5.1167,5.1152,5.1138,5.1113,5.128,5.128,5.1402,5.1403,5.1404]}]]